STARLINK-36124, 67121

Orbit data source: Space-Track

STARLINK-36124, 67121 is a payload satellite owned by SpaceX/Seattle (US) in LEO that was launched on Mon, 15 Dec 2025 UTC via an FALCON 9 launch vehicle from the Air Force Eastern Test Range (AFETR). Payload-class satellites include a variety of spacecraft equipped with specific instruments for various scientific and technological missions. These include communications satellites like Starlink; space stations such as the ISS; scientific satellites like the Hubble; Earth observation satellites from companies like Planet Labs, Umbra, and HawkEye 360; GPS; miniature CubeSats for education and research; and military/defense satellites.

Not visible in the next 10 days
Identifier
67121, 2025-299V
Orbit
LEO
Country
Flag of USUS
Related business
Manufacturer
SpaceX/Seattle
Mission
Operational spacecraft
Bus & Motor
STARLINK V2MO, Unknown motor
Mass
575 kg wet, ~530 kg dry
Launch date (UTC)
2025-12-15 (1 week ago)
Launch vehicle
FALCON 9
Launch site
Air Force Eastern Test Range (AFETR)
Object type
Payload
Rocket body
Debris
Shape & HBR
Unknown
Radar Cross Section
RCS unknown

Expand to show TLE details & history
Last TLE update: 5 hours ago

TLE from 5 hours ago
0 STARLINK-36124
1 67121U 25299V   25355.58335648 -.01552804  70089-3 -37376-2 0  9998
2 67121  42.9996 262.6743 0002177 267.3985 197.0157 15.95617164  2237
Epoch: 2025-12-21T14:00Z
TLE epoch observation values (Epoch: 2025-12-21T14:00:01.999Z)
Latitude
41.49956°
Longitude
71.64571°
Altitude
290.723 km
Speed
7.738 km/s
True Right ascension
00h 48m 11s
True Declination
41° 19' 01"
Sunlit
Object was in full shadow at epoch
Visualization orbit readout
Latitude
Unknown
Longitude
Unknown
Altitude
Unknown
Speed
Unknown
Apparent Right ascension
Unknown
Apparent Declination
Unknown
Sunlit
N/A
Visualization observer readout
Local Sidereal Time
17:42:28
Azimuth
Unknown
Elevation
Unknown
Doppler factor
Unknown
Orbital elements
Apogee altitude
290.049 km
Perigee altitude
287.146 km
Semi-major axis
6,666.735 km
Eccentricity
0.00022
Inclination
42.9996°
RAAN
262.6743°
Arg. of periapsis
267.3985°
True anomaly
197.0084°
Mean anomaly
197.0157°
Eccentric anomaly
197.01205°
Mean motion
3.98725 °/min
Orbital period
90.29 mins
BSTAR
-0.0037376
Loading maneuver chart data...
Computing Atmospheric mass density...
Loading historical data...
Loading historical data...
Loading historical data...
Loading historical data...
Loading historical data...
Loading historical data...
Loading historical data...

Documentation

Showing up to 5 results
|